Regional Weather Roundup
Issued by NWS

Home | Current Version | Previous Version | Text Only | Print | Product List | Glossary Off
Versions: 1 2 3 4 5 6 7 8 9 10 11 12 13 14 15 16 17 18 19 20 21 22 23 24 25 26 27 28 29 30 31 32 33 34 35 36 37 38 39 40 41 42 43 44 45 46 47 48 49 50

000
ASUS43 KIND 251009
RWRIN

WEATHER ROUNDUP FOR INDIANA
NATIONAL WEATHER SERVICE INDIANAPOLIS IN
600 AM EDT WED MAY 25 2016

NOTE: "FAIR" INDICATES FEW OR NO CLOUDS BELOW 12,000 FEET WITH NO
SIGNIFICANT WEATHER AND/OR OBSTRUCTIONS TO VISIBILITY.

* - STATION DOES NOT REPORT WEATHER SUCH AS PRECIPITATION OR FOG.

+ - STATION NOT QUALITY CONTROLLED BY THE NATIONAL WEATHER SERVICE.
    USE DATA WITH CAUTION...ESPECIALLY DEWPOINT AND RELATIVE
    HUMIDITY OBSERVATIONS.

INZ001>003-010>013-019-020-251100-
NORTHWEST INDIANA

CITY           SKY/WX    TMP DP  RH WIND       PRES   REMARKS
GARY /AIRPORT/ PTCLDY    70  64  83 S3        30.00F
KNOX *+        MOCLDY    63  46  55 SE3       30.02S
LA PORTE +     CLEAR     64  58  81 CALM      30.03S
MICHIGAN CITY+ CLEAR     68  55  64 S5        30.02S
MONTICELLO +   CLOUDY    65  55  68 CALM      30.02F
RENSSELAER +   MOCLDY    64  55  72 CALM      30.01F
VALPARAISO     CLEAR     64  55  72 SE5       30.01F

$$

LMZ046-743>745-251100-
SOUTHERN LAKE MICHIGAN

STATION/POSITION TIME  TEMP    WIND        PRES    WAVE
                       AIR SEA DIR/SP/G            HT
                 (UTC) (F)     (DEG/KT/KT) (MB)    (FT)
BURNS HARBOR     0900   69     190/  7/ 10 1016.3F
MICHIGAN CITY    0900   70     150/ 12/ 15   N/A
5NW MICH CITY    1000   63 57  160/  4/  6   N/A     1

$$

INZ004-005-014>016-021>024-251100-
NORTH CENTRAL INDIANA

CITY           SKY/WX    TMP DP  RH WIND       PRES   REMARKS
GOSHEN         CLOUDY    59  52  77 SE5       30.05S
LOGANSPORT +   CLOUDY    63  55  77 CALM      30.05S
PERU/GRISSOM   CLOUDY    63  57  81 S5        30.04S
ROCHESTER +    CLOUDY    68  57  68 CALM      30.05S
SOUTH BEND     PTCLDY    65  54  67 SW3       30.04R
WARSAW +       CLOUDY    63  54  72 CALM      30.05S

$$

INZ006>009-017-018-025>027-251100-
NORTHEAST INDIANA

CITY           SKY/WX    TMP DP  RH WIND       PRES   REMARKS
ANGOLA *+      CLEAR     55  55 100 CALM      30.06S
AUBURN +       MOCLDY    61  52  72 S3        30.07S
FORT WAYNE     CLOUDY    63  53  70 SE3       30.07S
HUNTINGTON +   CLOUDY   N/A N/A N/A CALM      30.05F

$$

INZ028-029-035-036-043>045-051>053-251100-
WEST CENTRAL INDIANA

CITY           SKY/WX    TMP DP  RH WIND       PRES   REMARKS
CRAWFORDSVL +  MOCLDY    61  57  85 SE7       30.03F
GREENCASTLE +  MOCLDY    63  59  88 CALM      30.05S
LAFAYETTE      MOCLDY    62  56  80 CALM      30.02F
TERRE HAUTE    PTCLDY    63  57  81 CALM      30.02F

$$

INZ030>032-037>040-046>048-054>057-064-065-251100-
CENTRAL INDIANA

CITY           SKY/WX    TMP DP  RH WIND       PRES   REMARKS
CP ATTERBURY + CLOUDY    63  59  88 CALM      30.08S
FISHERS *+     CLOUDY    63  59  88 SE6       30.06F
FRANKFORT +      N/A     63  50  61 CALM      30.06S
GREENWOOD *+   CLOUDY    66  57  72 SE6       30.07S
INDIANAPOLIS   CLOUDY    66  57  72 SE8       30.04S
-EAGLE CREEK   CLOUDY    67  56  67 SE3       30.05S
KOKOMO *+      CLOUDY    61  54  77 S7        30.05S
MARION +       CLOUDY    62  55  76 SE6       30.07S
SHELBYVILLE    CLOUDY    68  57  68 SE7       30.06S
ZIONSVILLE +   CLOUDY    64  56  77 CALM      30.06S

$$

INZ033-034-041-042-049-050-058-059-251100-
EAST CENTRAL INDIANA

CITY           SKY/WX    TMP DP  RH WIND       PRES   REMARKS
MUNCIE         MOCLDY    66  53  63 S5        30.07S

$$

INZ060-061-067>069-081>083-085>088-251100-
SOUTHWEST INDIANA

CITY           SKY/WX    TMP DP  RH WIND       PRES   REMARKS
EVANSVILLE     MOCLDY    63  59  87 CALM      30.04F
HUNTINGBURG *+ CLOUDY    63  55  77 SE6       30.05F
WASHINGTON +   CLEAR     62  60  93 S5        30.03F

$$

INZ062-063-066-070>080-084-089>092-251100-
SOUTH CENTRAL AND SOUTHEAST INDIANA

CITY           SKY/WX    TMP DP  RH WIND       PRES   REMARKS
BEDFORD +      PTCLDY    64  63  94 CALM      30.06S
BLOOMINGTON    CLOUDY    64  57  78 SE5       30.05F
MADISON *+     CLOUDY    64  55  72 SE3       30.10S
NORTH VERNON + CLOUDY    66  61  82 CALM      30.09R
SEYMOUR +      CLEAR     66  57  72 CALM      30.07S

$$




USA.gov is the U.S. government's official web portal to all federal, state and local government web resources and services.